TimeAST,TemperatureF,Dew PointF,Humidity,Sea Level PressureIn,VisibilityMPH,Wind Direction,Wind SpeedMPH,Gust SpeedMPH,PrecipitationIn,Events,Conditions,WindDirDegrees,DateUTC
12:00 AM,82.4,44.6,26,29.89,5.6,NNW,4.6,-,N/A,,Unknown,330,2013-03-30 21:00:00
1:00 AM,78.8,42.8,28,29.89,-9999.0,NNW,4.6,-,N/A,,Clear,340,2013-03-30 22:00:00
2:00 AM,78.8,46.4,32,29.89,-9999.0,SSW,3.5,-,N/A,,Clear,210,2013-03-30 23:00:00
3:00 AM,80,43,17,29.89,6,NW,3.5,,,,,310,2013-03-31 00:00:00
3:00 AM,78.8,42.8,28,29.89,-9999.0,NW,3.5,-,N/A,,Clear,310,2013-03-31 00:00:00
3:30 AM,78.8,46.4,32,29.89,-9999.0,Variable,2.3,-,N/A,,Clear,0,2013-03-31 00:30:00
4:00 AM,77.0,42.8,29,29.89,-9999.0,NNW,4.6,-,N/A,,Clear,340,2013-03-31 01:00:00
4:30 AM,78.8,44.6,30,29.89,-9999.0,NW,3.5,-,N/A,,Clear,320,2013-03-31 01:30:00
5:00 AM,78.8,46.4,32,29.89,-9999.0,WNW,3.5,-,N/A,,Clear,300,2013-03-31 02:00:00
5:30 AM,78.8,48.2,34,29.89,-9999.0,Variable,1.2,-,N/A,,Clear,0,2013-03-31 02:30:00
6:00 AM,77.0,48.2,36,29.92,-9999.0,WSW,3.5,-,N/A,,Clear,250,2013-03-31 03:00:00
6:30 AM,80.6,59.0,48,29.92,-9999.0,NW,3.5,-,N/A,,Clear,310,2013-03-31 03:30:00
7:00 AM,80.6,48.2,32,29.92,-9999.0,NW,3.5,-,N/A,,Clear,310,2013-03-31 04:00:00
7:30 AM,82.4,46.4,28,29.92,-9999.0,WNW,3.5,-,N/A,,Clear,300,2013-03-31 04:30:00
8:00 AM,84.2,46.4,27,29.95,-9999.0,WNW,5.8,-,N/A,,Clear,300,2013-03-31 05:00:00
8:30 AM,86.0,44.6,23,29.95,-9999.0,WNW,4.6,-,N/A,,Clear,300,2013-03-31 05:30:00
9:00 AM,87,43,13,29.96,7,NW,8.1,,,,,310,2013-03-31 06:00:00
9:00 AM,87.8,42.8,21,29.95,-9999.0,NW,8.1,-,N/A,,Clear,310,2013-03-31 06:00:00
10:00 AM,89.6,42.8,20,29.95,-9999.0,NW,11.5,-,N/A,,Clear,320,2013-03-31 07:00:00
11:00 AM,93.2,35.6,13,29.95,-9999.0,North,15.0,-,N/A,,Clear,350,2013-03-31 08:00:00
11:30 AM,93.2,42.8,17,29.92,-9999.0,North,17.3,-,N/A,,Clear,10,2013-03-31 08:30:00
12:00 PM,93.2,42.8,17,29.92,-9999.0,North,16.1,-,N/A,,Clear,10,2013-03-31 09:00:00
12:30 PM,91.4,42.8,18,29.89,-9999.0,North,17.3,-,N/A,,Clear,360,2013-03-31 09:30:00
1:00 PM,93.2,48.2,21,29.89,-9999.0,North,17.3,-,N/A,,Clear,10,2013-03-31 10:00:00
1:30 PM,91.4,50.0,24,29.89,-9999.0,North,19.6,-,N/A,,Clear,360,2013-03-31 10:30:00
2:00 PM,91.4,46.4,21,29.89,-9999.0,North,20.7,-,N/A,,Clear,360,2013-03-31 11:00:00
2:30 PM,91.4,48.2,23,29.89,-9999.0,North,10.4,-,N/A,,Clear,360,2013-03-31 11:30:00
3:00 PM,91.4,48.2,23,29.89,-9999.0,North,19.6,-,N/A,,Clear,360,2013-03-31 12:00:00
3:30 PM,89.6,50.0,26,29.89,-9999.0,North,18.4,-,N/A,,Clear,360,2013-03-31 12:30:00
4:00 PM,89.6,48.2,24,29.89,-9999.0,North,17.3,-,N/A,,Clear,360,2013-03-31 13:00:00
4:30 PM,87.8,44.6,22,29.89,6.2,North,13.8,-,N/A,,Scattered Clouds,360,2013-03-31 13:30:00
5:00 PM,86.0,48.2,27,29.89,6.2,North,10.4,-,N/A,,Mostly Cloudy,360,2013-03-31 14:00:00
5:30 PM,86.0,48.2,27,29.92,6.2,NNW,8.1,-,N/A,,Mostly Cloudy,340,2013-03-31 14:30:00
6:00 PM,86.0,53.6,33,29.92,-9999.0,North,11.5,-,N/A,,Clear,360,2013-03-31 15:00:00
6:30 PM,84.2,53.6,35,29.92,-9999.0,North,6.9,-,N/A,,Clear,350,2013-03-31 15:30:00
7:00 PM,84.2,51.8,33,29.92,-9999.0,North,6.9,-,N/A,,Clear,360,2013-03-31 16:00:00
7:30 PM,86.0,44.6,23,29.92,-9999.0,NW,5.8,-,N/A,,Clear,320,2013-03-31 16:30:00
8:00 PM,86.0,44.6,23,29.92,-9999.0,NNW,8.1,-,N/A,,Clear,330,2013-03-31 17:00:00
9:00 PM,85,42,13,29.95,7,NW,5.8,,,,Scattered Clouds,310,2013-03-31 18:00:00
9:00 PM,84.2,42.8,23,29.95,-9999.0,NW,5.8,-,N/A,,Clear,310,2013-03-31 18:00:00
9:30 PM,84.2,42.8,23,29.95,-9999.0,NW,6.9,-,N/A,,Clear,310,2013-03-31 18:30:00
10:30 PM,82.4,44.6,26,29.92,-9999.0,NW,5.8,-,N/A,,Clear,310,2013-03-31 19:30:00
11:00 PM,82.4,46.4,28,29.92,-9999.0,NW,5.8,-,N/A,,Clear,310,2013-03-31 20:00:00
11:30 PM,82.4,46.4,28,29.92,-9999.0,NW,4.6,-,N/A,,Clear,310,2013-03-31 20:30:00